#timestamp,LO_Frequency,Hit,StdDev 
1621976415.1,286046998.2,N
1621976435.9,286046998.1,N
1621976455.7,286046999.6,N
1621976475.5,286046996.5,Y
1621976495.4,286046998.2,P
1621976515.2,286046998.5,P
1621976535.0,286046998.6,P
1621976535.9,286046998.6,Y
1621976555.8,286047000.2,P
1621976575.6,286047000.4,N
1621976595.5,286047000.5,N
1621976615.3,286047002.8,Y
1621976635.1,286047000.1,P
1621976655.9,286046998.3,P
1621976675.7,286047000.6,N
1621976695.6,286047000.5,N
1621976715.4,286047000.4,N
1621976735.2,286047000.0,N
1621976755.1,286046999.7,N
1621976756.0,286046999.7,N
1621976775.8,286047000.7,N
1621976795.6,286046998.2,N
1621976815.5,286047000.5,N
1621976835.3,286047000.1,N
1621976855.1,286047000.2,N
1621976875.9,286047000.9,N
1621976895.7,286046998.3,N
1621976915.6,286047001.0,N
1621976935.4,286047000.6,N
1621976955.2,286047000.7,N
1621976975.1,286046999.9,N
1621976976.0,286046999.9,N
1621976995.8,286046999.8,N
1621977015.6,286047000.3,N
1621977035.5,286047000.1,N
1621977055.3,286047000.1,N
1621977075.2,286046999.7,N
1621977095.9,286047002.7,Y
1621977115.7,286047002.0,P
1621977135.6,286047002.1,N
1621977155.4,286047002.7,N
1621977175.2,286047000.0,N
1621977195.1,286047002.8,N
1621977196.0,286047002.8,N
1621977215.8,286047002.7,N
1621977235.7,286047002.8,N
1621977255.5,286047004.0,Y
1621977275.3,286047000.9,P
1621977295.2,286047000.0,N
1621977315.0,286047000.9,N
1621977315.9,286047000.9,N
1621977335.8,286046998.5,N
1621977355.6,286046999.1,N
1621977375.4,286047000.5,N
1621977395.3,286046998.2,N
1621977415.1,286047001.1,N
1621977435.8,286047000.6,N
1621977455.7,286047000.0,N
1621977475.5,286047001.2,N
1621977495.4,286046999.6,N
1621977515.2,286046999.0,N
1621977535.0,286046998.5,N
1621977535.9,286046998.5,N
1621977555.8,286046998.9,N
1621977575.6,286046998.7,N
1621977595.4,286047000.7,N
1621977615.3,286047000.5,N
1621977635.1,286046998.8,N
1621977655.9,286047001.2,N
1621977675.7,286046999.2,N
1621977695.5,286047001.2,N
1621977715.4,286046999.1,N
1621977735.2,286046998.6,N
1621977755.0,286046998.5,N
1621977755.9,286046998.5,N
1621977775.8,286046998.7,N
1621977795.6,286047000.3,N
1621977815.5,286047001.9,N
1621977835.3,286047002.9,N
1621977855.1,286047011.9,Y
1621977875.9,286047004.8,P
1621977895.7,286047005.1,N
1621977915.5,286047005.8,N
1621977935.4,286047005.9,N
1621977955.2,286047005.3,N
1621977975.1,286047005.1,N
1621977976.0,286047005.1,N
1621977995.8,286047005.7,Y
1621978015.6,286047000.9,P
1621978035.5,286046998.2,N
1621978055.3,286047000.0,N
1621978075.2,286047002.7,N
1621978095.9,286047000.9,N
1621978115.7,286047000.1,N
1621978135.6,286047000.2,N
1621978155.4,286047000.4,N
1621978175.2,286046999.7,N
1621978195.1,286047002.0,N
1621978196.0,286047002.0,N
1621978215.8,286047001.9,N
1621978235.7,286047000.2,N
1621978255.5,286046999.9,N
1621978275.3,286047000.5,N
1621978295.2,286047000.6,N
1621978315.0,286047000.6,N
1621978315.9,286047000.6,N
1621978335.7,286047000.0,N
1621978355.6,286047002.8,N
1621978375.4,286047001.9,N
1621978395.3,286047002.6,N
1621978415.1,286047002.4,N
1621978416.0,286047002.4,N
1621978435.8,286047002.2,N
1621978455.7,286047000.6,N
1621978475.5,286047000.8,N
1621978495.3,286047000.4,N
1621978515.2,286047000.1,N
1621978535.0,286047000.2,N
1621978535.9,286047000.2,N
1621978555.8,286047001.1,N
1621978575.6,286046998.7,N
1621978595.4,286046999.5,N
1621978615.3,286046999.5,N
1621978635.1,286046998.9,N
1621978655.8,286046999.3,N
1621978675.7,286047001.2,N
1621978695.5,286046999.1,N
1621978715.4,286046999.5,N
1621978735.2,286046997.1,N
1621978755.0,286046996.6,N
1621978755.9,286046996.6,N
1621978775.8,286046999.2,N
1621978795.6,286046998.8,N
1621978815.4,286046999.2,N
1621978835.3,286046999.5,N
1621978855.1,286046997.2,N
1621978875.9,286046999.1,N
1621978895.7,286046999.0,N
1621978915.5,286046996.6,N
1621978935.4,286046999.3,N
1621978955.2,286046999.3,N
1621978975.0,286046998.5,N
1621978976.0,286046998.5,N
1621978995.8,286046998.5,N
1621979015.6,286046998.1,N
1621979035.5,286046999.1,N
1621979055.3,286046999.5,N
1621979075.1,286046999.3,N
1621979095.9,286046998.8,N
1621979115.7,286046999.3,N
1621979135.6,286046998.7,N
1621979155.4,286046998.4,N
1621979175.2,286046998.4,N
1621979195.1,286046998.7,N
1621979196.0,286046998.7,N
1621979215.8,286046998.9,N
1621979235.6,286046998.9,N
1621979255.5,286046996.6,Y
1621979275.3,286046999.9,P
1621979295.2,286047002.3,P
1621979315.9,286047002.6,N
1621979335.7,286046999.8,N
1621979355.6,286047002.3,N
1621979375.4,286047002.8,N
1621979395.3,286047002.1,N
1621979415.1,286047002.1,N
1621979416.0,286047002.1,N
1621979435.8,286047001.9,N
1621979455.7,286047002.7,N
1621979475.5,286047002.8,N
1621979495.3,286047002.6,N
1621979515.2,286047002.8,N
1621979535.0,286047000.3,N
1621979535.9,286047000.3,N
1621979555.8,286047000.7,N
1621979575.6,286046999.8,N
1621979595.4,286047000.1,N
1621979615.3,286047000.8,N
1621979635.1,286047002.7,N
1621979655.9,286047000.1,N
1621979675.7,286047002.8,N
1621979695.5,286047000.0,N
1621979715.4,286047000.6,N
1621979735.2,286047000.8,N
1621979755.0,286047000.0,N
1621979755.9,286047000.0,N
1621979775.8,286046999.7,N
1621979795.6,286046999.8,N
1621979815.5,286047003.9,Y
1621979835.3,286047001.5,P
1621979855.1,286047004.4,P
1621979875.9,286047003.1,N
1621979895.7,286047004.0,Y
1621979915.5,286047000.1,P
1621979935.4,286046999.8,N
1621979955.2,286047002.7,N
1621979975.1,286047004.3,Y
1621979976.0,286047004.3,P
1621979995.8,286047000.0,N
